Weather History for Jackson, MN

Change the Weather History Date:

Wednesday, May 15, 2013

  Actual Average Record
Temperature  
Mean Temperature 65 °F -  
Max Temperature 77 °F 65 °F 96 °F (2001)
Min Temperature 53 °F 44 °F 30 °F (1997)
Growing Degree Days 15 (Base 50)    
Moisture  
Dew Point 38 °F    
Average Humidity 37    
Maximum Humidity 62    
Minimum Humidity 22    
Precipitation  
Precipitation 0.00 in - - ()
Sea Level Pressure  
Sea Level Pressure 29.90 in    
Wind  
Wind Speed 9 mph (North)    
Max Wind Speed 21 mph    
Max Gust Speed 30 mph    
Visibility 10 miles    
Events Rain    
Averages and records for this station are not official NWS values.
T = Trace of Precipitation, MM = Missing Value Source: NWS Daily Summary

Daily Weather History Graph

Daily Weather History Graph

Search for Another Location

Airport:

Trip Planner

Search our weather history database for the weather conditions in past years. The results will help you decide how hot, cold, wet, or windy it might be!

Date:

Astronomy

May. 15, 2013 Rise Set
Actual Time 5:54 AM CDT 8:38 PM CDT
Civil Twilight 5:21 AM CDT 9:11 PM CDT
Nautical Twilight 4:39 AM CDT 9:53 PM CDT
Astronomical Twilight 3:51 AM CDT 10:42 PM CDT
Moon 10:32 AM CDT (5/15) 12:24 AM CDT (5/15)
Length of Visible Light 15h 50m
Length of Day
14h 44m
Waxing Crescent, 27% of the Moon is Illuminated
May 15
Waxing Crescent
May 17
First Quarter
May 24
Full
May 31
Last Quarter
Jun 8
New

Hourly Weather History & Observations

Time (CDT) Temp. Dew Point Humidity Pressure Visibility Wind Dir Wind Speed Gust Speed Precip Events Conditions
12:11 AM 68.0 °F 39.2 °F 35% 29.80 in 10.0 mi NNW 20.7 mph 29.9 mph N/A   Clear
12:31 AM 64.4 °F 41.0 °F 42% 29.81 in 10.0 mi NNW 13.8 mph 21.9 mph N/A   Clear
12:52 AM 64.4 °F 41.0 °F 42% 29.82 in 10.0 mi NNW 18.4 mph 25.3 mph N/A   Clear
1:12 AM 62.6 °F 41.0 °F 45% 29.82 in 10.0 mi NNW 15.0 mph 21.9 mph N/A   Clear
1:32 AM 62.6 °F 41.0 °F 45% 29.83 in 10.0 mi NNW 13.8 mph 23.0 mph N/A   Clear
1:52 AM 60.8 °F 41.0 °F 48% 29.83 in 10.0 mi NNW 12.7 mph 21.9 mph N/A   Clear
2:11 AM 60.8 °F 41.0 °F 48% 29.83 in 10.0 mi NNW 11.5 mph - N/A   Clear
2:32 AM 60.8 °F 41.0 °F 48% 29.84 in 10.0 mi NNW 13.8 mph 20.7 mph N/A   Clear
2:52 AM 60.8 °F 41.0 °F 48% 29.84 in 10.0 mi North 12.7 mph 19.6 mph N/A   Clear
3:12 AM 59.0 °F 41.0 °F 51% 29.85 in 10.0 mi North 9.2 mph - N/A   Clear
3:32 AM 59.0 °F 41.0 °F 51% 29.86 in 10.0 mi NNW 11.5 mph 16.1 mph N/A   Clear
3:52 AM 57.2 °F 41.0 °F 55% 29.86 in 10.0 mi North 9.2 mph - N/A   Clear
4:12 AM 55.4 °F 41.0 °F 58% 29.86 in 10.0 mi North 8.1 mph - N/A   Clear
4:33 AM 55.4 °F 41.0 °F 58% 29.87 in 10.0 mi North 6.9 mph - N/A   Clear
4:52 AM 53.6 °F 41.0 °F 62% 29.87 in 10.0 mi North 10.4 mph - N/A   Clear
5:12 AM 53.6 °F 41.0 °F 62% 29.88 in 10.0 mi North 5.8 mph - N/A   Clear
5:31 AM 53.6 °F 39.2 °F 58% 29.89 in 10.0 mi NNW 5.8 mph - N/A   Clear
5:52 AM 53.6 °F 39.2 °F 58% 29.88 in 10.0 mi North 9.2 mph - N/A   Clear
6:12 AM 53.6 °F 39.2 °F 58% 29.91 in 10.0 mi NNE 3.5 mph - N/A   Clear
6:32 AM 53.6 °F 41.0 °F 62% 29.93 in 10.0 mi North 3.5 mph - N/A   Clear
6:52 AM 55.4 °F 41.0 °F 58% 29.94 in 10.0 mi North 5.8 mph - N/A   Clear
7:12 AM 55.4 °F 41.0 °F 58% 29.93 in 10.0 mi NNE 9.2 mph - N/A   Clear
7:32 AM 59.0 °F 41.0 °F 51% 29.95 in 10.0 mi North 8.1 mph - N/A   Clear
7:52 AM 60.8 °F 41.0 °F 48% 29.95 in 10.0 mi NNE 9.2 mph - N/A   Clear
8:11 AM 62.6 °F 39.2 °F 42% 29.95 in 10.0 mi NNE 11.5 mph - N/A   Clear
8:31 AM 64.4 °F 39.2 °F 40% 29.94 in 10.0 mi NNE 12.7 mph 16.1 mph N/A   Clear
8:52 AM 64.4 °F 37.4 °F 37% 29.96 in 10.0 mi NNE 8.1 mph - N/A   Clear
9:12 AM 64.4 °F 37.4 °F 37% 29.97 in 10.0 mi North 3.5 mph - N/A   Clear
9:31 AM 64.4 °F 33.8 °F 32% 29.96 in 10.0 mi Calm Calm - N/A   Scattered Clouds
9:52 AM 68.0 °F 33.8 °F 28% 29.97 in 10.0 mi Calm Calm - N/A   Mostly Cloudy
10:12 AM 68.0 °F 32.0 °F 26% 29.96 in 10.0 mi North 4.6 mph - N/A   Mostly Cloudy
10:30 AM 69.8 °F 32.0 °F 25% 29.95 in 10.0 mi ENE 6.9 mph - N/A   Mostly Cloudy
10:52 AM 69.8 °F 30.2 °F 23% 29.97 in 10.0 mi Calm Calm - N/A   Scattered Clouds
11:12 AM 68.0 °F 37.4 °F 33% 29.95 in 10.0 mi East 5.8 mph - N/A Rain Light Rain
11:32 AM 69.8 °F 32.0 °F 25% 29.97 in 10.0 mi Calm Calm - N/A   Scattered Clouds
11:52 AM 69.8 °F 33.8 °F 27% 29.97 in 10.0 mi South 4.6 mph - N/A   Clear
12:12 PM 71.6 °F 32.0 °F 23% 29.96 in 10.0 mi SSE 3.5 mph - N/A   Clear
12:32 PM 71.6 °F 32.0 °F 23% 29.95 in 10.0 mi Calm Calm - N/A   Clear
12:52 PM 73.4 °F 35.6 °F 25% 29.92 in 10.0 mi SSE 6.9 mph - N/A   Clear
1:11 PM 73.4 °F 35.6 °F 25% 29.92 in 10.0 mi East 4.6 mph - N/A   Clear
1:32 PM 71.6 °F 37.4 °F 29% 29.91 in 10.0 mi South 5.8 mph 18.4 mph N/A Rain Light Rain
1:52 PM 71.6 °F 37.4 °F 29% 29.91 in 10.0 mi Calm Calm - N/A   Mostly Cloudy
2:11 PM 71.6 °F 42.8 °F 35% 29.91 in 10.0 mi NE 10.4 mph - N/A   Scattered Clouds
2:32 PM 73.4 °F 37.4 °F 27% 29.91 in 10.0 mi NNE 9.2 mph - N/A   Mostly Cloudy
2:52 PM 71.6 °F 35.6 °F 27% 29.91 in 10.0 mi NE 3.5 mph - N/A   Mostly Cloudy
3:11 PM 75.2 °F 35.6 °F 24% 29.91 in 10.0 mi NNW 9.2 mph - N/A   Clear
3:32 PM 73.4 °F 35.6 °F 25% 29.91 in 10.0 mi North 4.6 mph - N/A   Clear
3:52 PM 75.2 °F 37.4 °F 25% 29.91 in 10.0 mi NW 6.9 mph 18.4 mph N/A   Clear
4:12 PM 75.2 °F 37.4 °F 25% 29.91 in 10.0 mi WNW 8.1 mph 16.1 mph N/A   Scattered Clouds
4:32 PM 73.4 °F 35.6 °F 25% 29.91 in 10.0 mi NNW 5.8 mph - N/A   Mostly Cloudy
4:52 PM 73.4 °F 35.6 °F 25% 29.91 in 10.0 mi North 4.6 mph - N/A   Overcast
5:12 PM 77.0 °F 35.6 °F 22% 29.90 in 10.0 mi North 5.8 mph - N/A   Overcast
5:32 PM 77.0 °F 35.6 °F 22% 29.90 in 10.0 mi North 4.6 mph - N/A   Mostly Cloudy
5:52 PM 77.0 °F 35.6 °F 22% 29.89 in 10.0 mi NNW 5.8 mph - N/A   Scattered Clouds
6:12 PM 75.2 °F 35.6 °F 24% 29.89 in 10.0 mi North 6.9 mph - N/A   Mostly Cloudy
6:32 PM 75.2 °F 35.6 °F 24% 29.89 in 10.0 mi NW 3.5 mph - N/A   Overcast
6:52 PM 75.2 °F 35.6 °F 24% 29.88 in 10.0 mi NW 4.6 mph - N/A   Overcast
7:12 PM 73.4 °F 35.6 °F 25% 29.89 in 10.0 mi NNE 4.6 mph - N/A   Overcast
7:32 PM 73.4 °F 35.6 °F 25% 29.88 in 10.0 mi NNE 4.6 mph - N/A   Overcast
7:52 PM 73.4 °F 35.6 °F 25% 29.89 in 10.0 mi NNE 4.6 mph - N/A   Overcast
8:12 PM 71.6 °F 37.4 °F 29% 29.88 in 10.0 mi ENE 3.5 mph - N/A   Overcast
8:33 PM 71.6 °F 35.6 °F 27% 29.88 in 10.0 mi ENE 3.5 mph - N/A   Overcast
8:52 PM 71.6 °F 35.6 °F 27% 29.88 in 10.0 mi Calm Calm - N/A   Overcast
9:12 PM 69.8 °F 35.6 °F 28% 29.88 in 10.0 mi Calm Calm - N/A   Overcast
9:32 PM 69.8 °F 37.4 °F 31% 29.89 in 10.0 mi South 4.6 mph - N/A   Overcast
9:52 PM 66.2 °F 41.0 °F 40% 29.89 in 10.0 mi South 3.5 mph - N/A   Mostly Cloudy
10:12 PM 66.2 °F 39.2 °F 37% 29.89 in 10.0 mi South 5.8 mph - N/A   Scattered Clouds
10:32 PM 64.4 °F 41.0 °F 42% 29.89 in 10.0 mi South 5.8 mph - N/A   Clear
10:50 PM 64.4 °F 41.0 °F 42% 29.89 in 10.0 mi South 5.8 mph - N/A   Clear
11:13 PM 62.6 °F 39.2 °F 42% 29.90 in 10.0 mi SSW 5.8 mph - N/A   Clear
11:32 PM 59.0 °F 41.0 °F 51% 29.90 in 10.0 mi SSW 3.5 mph - N/A   Clear
11:52 PM 60.8 °F 41.0 °F 48% 29.91 in 10.0 mi Calm Calm - N/A   Clear